TimeBST,TemperatureF,Dew PointF,Humidity,Sea Level PressureIn,VisibilityMPH,Wind Direction,Wind SpeedMPH,Gust SpeedMPH,PrecipitationIn,Events,Conditions,WindDirDegrees,DateUTC
12:20 AM,44.6,41.0,87,29.62,-9999.0,SSW,9.2,-,N/A,,Clear,200,2012-10-03 23:20:00
12:50 AM,44.6,41.0,87,29.62,-9999.0,SSW,9.2,-,N/A,,Clear,200,2012-10-03 23:50:00
1:20 AM,44.6,41.0,87,29.62,-9999.0,SSW,8.1,-,N/A,,Clear,210,2012-10-04 00:20:00
2:20 AM,44.6,41.0,87,29.62,-9999.0,SW,9.2,-,N/A,,Clear,230,2012-10-04 01:20:00
2:50 AM,44.6,41.0,87,29.62,-9999.0,SW,8.1,-,N/A,,Clear,230,2012-10-04 01:50:00
3:20 AM,42.8,41.0,93,29.62,-9999.0,SW,8.1,-,N/A,,Clear,230,2012-10-04 02:20:00
3:50 AM,44.6,41.0,87,29.62,6.2,SW,9.2,-,N/A,,Unknown,220,2012-10-04 02:50:00
4:20 AM,42.8,41.0,93,29.62,6.2,SW,8.1,-,N/A,,Unknown,220,2012-10-04 03:20:00
4:50 AM,42.8,41.0,93,29.62,6.2,SW,9.2,-,N/A,,Unknown,220,2012-10-04 03:50:00
5:20 AM,42.8,41.0,93,29.62,-9999.0,SW,9.2,-,N/A,,Clear,230,2012-10-04 04:20:00
5:50 AM,42.8,41.0,93,29.65,-9999.0,SW,9.2,-,N/A,,Clear,220,2012-10-04 04:50:00
6:20 AM,42.8,41.0,93,29.65,-9999.0,SW,8.1,-,N/A,,Clear,230,2012-10-04 05:20:00
6:50 AM,42.8,41.0,93,29.65,6.2,WSW,6.9,-,N/A,,Scattered Clouds,240,2012-10-04 05:50:00
7:20 AM,44.6,41.0,87,29.65,6.2,SW,6.9,-,N/A,,Scattered Clouds,230,2012-10-04 06:20:00
7:50 AM,44.6,41.0,87,29.68,6.2,WSW,6.9,-,N/A,,Scattered Clouds,240,2012-10-04 06:50:00
8:20 AM,46.4,42.8,87,29.68,6.2,WSW,5.8,-,N/A,,Mostly Cloudy,240,2012-10-04 07:20:00
8:50 AM,46.4,42.8,87,29.68,6.2,WSW,8.1,-,N/A,,Mostly Cloudy,240,2012-10-04 07:50:00
9:20 AM,46.4,42.8,87,29.71,6.2,WSW,9.2,-,N/A,,Mostly Cloudy,240,2012-10-04 08:20:00
9:50 AM,48.2,44.6,87,29.71,6.2,WSW,9.2,-,N/A,,Scattered Clouds,240,2012-10-04 08:50:00
10:20 AM,50.0,44.6,82,29.71,6.2,WSW,9.2,-,N/A,,Partly Cloudy,240,2012-10-04 09:20:00
10:50 AM,51.8,44.6,76,29.71,6.2,WSW,8.1,-,N/A,,Partly Cloudy,240,2012-10-04 09:50:00
11:20 AM,53.6,46.4,77,29.74,-9999.0,WSW,8.1,-,N/A,,Clear,250,2012-10-04 10:20:00
12:20 PM,55.4,46.4,72,29.77,6.2,WSW,11.5,-,N/A,,Scattered Clouds,240,2012-10-04 11:20:00
12:50 PM,55.4,44.6,67,29.77,6.2,WSW,11.5,-,N/A,,Scattered Clouds,250,2012-10-04 11:50:00
1:20 PM,55.4,44.6,67,29.77,6.2,WSW,10.4,-,N/A,,Scattered Clouds,250,2012-10-04 12:20:00
1:50 PM,55.4,44.6,67,29.77,6.2,West,9.2,-,N/A,,Scattered Clouds,260,2012-10-04 12:50:00
2:20 PM,57.2,44.6,63,29.77,6.2,SW,11.5,-,N/A,,Scattered Clouds,230,2012-10-04 13:20:00
2:50 PM,57.2,44.6,63,29.77,6.2,SW,12.7,-,N/A,,Scattered Clouds,220,2012-10-04 13:50:00
3:20 PM,57.2,44.6,63,29.77,6.2,WSW,10.4,-,N/A,,Scattered Clouds,240,2012-10-04 14:20:00
3:50 PM,57.2,44.6,63,29.77,6.2,SW,11.5,-,N/A,,Partly Cloudy,220,2012-10-04 14:50:00
4:20 PM,55.4,42.8,63,29.77,6.2,SW,8.1,-,N/A,,Scattered Clouds,220,2012-10-04 15:20:00
4:50 PM,55.4,42.8,63,29.74,6.2,SSW,6.9,-,N/A,,Partly Cloudy,210,2012-10-04 15:50:00
5:20 PM,55.4,44.6,67,29.74,6.2,South,8.1,-,N/A,,Partly Cloudy,180,2012-10-04 16:20:00
5:50 PM,53.6,44.6,72,29.77,-9999.0,SSW,6.9,-,N/A,,Clear,200,2012-10-04 16:50:00
6:20 PM,53.6,44.6,72,29.77,-9999.0,South,5.8,-,N/A,,Clear,190,2012-10-04 17:20:00
6:50 PM,53.6,46.4,77,29.77,-9999.0,South,8.1,-,N/A,,Clear,190,2012-10-04 17:50:00
7:20 PM,53.6,46.4,77,29.74,-9999.0,SSW,9.2,-,N/A,,Clear,200,2012-10-04 18:20:00
7:50 PM,51.8,44.6,76,29.74,-9999.0,SSW,9.2,-,N/A,,Clear,210,2012-10-04 18:50:00
8:20 PM,51.8,46.4,82,29.74,-9999.0,SSW,8.1,-,N/A,,Clear,200,2012-10-04 19:20:00
8:50 PM,51.8,46.4,82,29.74,-9999.0,South,8.1,-,N/A,,Clear,180,2012-10-04 19:50:00
9:20 PM,51.8,46.4,82,29.74,-9999.0,South,6.9,-,N/A,,Clear,180,2012-10-04 20:20:00
9:50 PM,50.0,46.4,87,29.74,6.2,South,6.9,-,N/A,Rain,Light Rain Showers,180,2012-10-04 20:50:00
10:20 PM,50.0,48.2,94,29.74,6.2,South,5.8,-,N/A,Rain,Light Rain,170,2012-10-04 21:20:00
10:50 PM,50.0,48.2,94,29.71,6.2,SSE,6.9,-,N/A,Rain,Light Rain,160,2012-10-04 21:50:00
11:20 PM,50.0,48.2,94,29.68,6.2,South,8.1,-,N/A,Rain,Light Rain,170,2012-10-04 22:20:00
11:50 PM,50.0,46.4,87,29.68,6.2,South,10.4,-,N/A,Rain,Light Rain,180,2012-10-04 22:50:00